Location: Bothwell
(41.7170°N, 112.2589°W)
Time: 14:51:20
(UTC+00:00)

Vanguard 2 - Pass Details

Date: 10 May 2026
Orbit: 553 x 2894 km, 32.9° (Epoch: 8 June)

Event Time Altitude Azimuth Distance (km) Brightness Sun altitude
Rises 11:26:48 0° 242° (WSW) 6,727 - -8.6°
Exits shadow 11:30:55 - 239° (WSW) 5,808 11.3 -8.0°
Reaches altitude 10° 11:31:32 10° 239° (WSW) 5,670 11.2 -7.9°
Maximum altitude 11:47:39 53° 169° (S) 2,785 10.3 -5.3°
Drops below altitude 10° 11:58:57 10° 97° (E) 4,095 12.2 -3.4°
Sets 12:01:47 0° 92° (E) 4,808 12.8 -3.0°
